[[{"header":{"parameterUnit":"m.s-1","parameterCategory":1,"la1":30.2991,"la2":30.254,"lo1":-89.0895,"lo2":-89.0444,"dy":0.0017,"dx":0.0017,"nx":28,"ny":28,"refTime":"2025-06-08T09:00:00:Z","depth":0,"parameterNumber":2,"parameterNumberName":"U-component_of_WINDS"},"data":[0,0,0,0,0,0,0,0,0,0,0,0,0,0,0,0,0,0,0,0,0,0,0,0,0,0,0,0,0,0,0,0,0,0,0,0,0,0,0,0,0,0,0,0,0,0,0,0,0,0,0,0,0,0,0,0,0,0,6.8028,6.803,0,6.8216,6.8218,6.822,6.8189,6.8185,6.8182,6.8179,6.8369,6.8377,6.8385,0,0,0,0,0,0,0,0,0,0,0,0,0,6.7635,6.7643,6.8028,6.803,6.8032,6.8216,6.8218,6.8221,6.8189,6.8185,6.8181,6.8178,6.8366,6.8376,6.8385,0,0,0,0,0,0,0,0,0,0,0,0,0,6.7813,6.7645,6.8027,6.8039,6.8042,6.8215,6.8218,6.8222,6.819,6.8185,6.818,6.8176,6.8363,6.8375,6.8387,6.856,0,0,6.8424,6.8429,0,0,0,0,0,0,0,0,6.7803,6.7827,6.8035,6.8038,6.8042,6.8174,6.8149,6.8335,6.8191,6.8134,6.8179,6.8173,6.8308,6.8324,6.837,6.8569,6.8577,6.8425,6.8432,6.8438,6.8441,0,0,0,0,0,0,0,6.779,6.7819,6.8102,6.8038,6.8042,6.8033,6.8053,6.8184,6.8246,6.8138,6.8136,6.8159,6.8309,6.8358,6.8374,6.858,6.8425,6.8435,6.8443,6.8448,6.8924,6.893,0,0,0,0,0,0,6.7775,6.7809,6.8096,6.8108,6.7908,6.8044,6.8066,6.8136,6.8244,6.8256,6.8163,6.8157,6.834,6.836,6.8381,6.8587,6.8437,6.8449,6.8456,6.8919,6.8926,6.8931,0,0,0,0,0,0,6.7767,6.7801,6.8088,6.7958,6.7994,6.8056,6.8135,6.8143,6.8192,6.8263,6.8274,6.8203,6.8337,6.8364,6.8515,6.8593,6.8454,6.8465,6.8913,6.8921,6.8929,6.9002,0,0,0,0,0,0,6.7756,6.7799,6.7866,6.796,6.8001,6.8221,6.814,6.815,6.8214,6.8208,6.8303,6.8314,6.8335,6.8497,6.8527,6.8607,6.8475,6.8906,6.8916,6.8926,6.8993,6.9011,6.9027,0,0,0,0,0,6.7742,6.788,6.787,6.7905,6.8087,6.8226,6.8249,6.8271,6.822,6.8287,6.8332,6.8311,6.858,6.8512,6.8546,6.8631,6.8901,6.8913,6.8925,6.8985,6.9008,6.9027,0,0,0,0,0,0,6.7793,6.7892,6.7882,6.8055,6.8132,6.822,6.8305,6.8295,6.8387,6.8378,6.84,6.8422,6.8574,6.8618,6.8541,6.8802,6.8733,6.8753,6.8767,6.8789,6.8806,6.8791,6.8485,0,0,0,0,0,6.7825,6.7931,6.8011,6.8155,6.8194,6.8243,6.8305,6.8315,6.8395,6.8427,6.8484,6.8561,6.8662,6.8729,6.8827,6.9,6.9018,6.9075,6.9092,6.9106,6.9121,6.9211,6.9236,6.8971,6.8971,6.8971,0,0,6.7891,6.7958,6.8023,6.8167,6.8228,6.8334,6.8271,6.8387,6.8465,6.8445,6.8589,6.8634,6.8722,6.8883,6.8957,6.8924,6.9199,6.9121,6.9132,6.914,6.9226,6.9251,6.9273,6.8979,6.8978,6.8977,0,0,6.8064,6.8128,6.8252,6.8315,6.8408,6.8439,6.8469,6.8559,6.8587,6.8733,6.8718,6.8811,6.8987,6.9049,6.9103,6.9298,6.928,6.9329,6.9419,6.9506,6.9527,6.9546,6.961,6.9634,6.9345,6.9345,6.9345,0,6.8133,6.8295,6.8318,6.8435,6.8496,6.8483,6.8608,6.8667,6.8787,6.8829,6.8792,6.9009,6.9068,6.9241,6.9288,6.9335,6.9366,6.9317,6.9523,6.9541,6.9559,6.9621,6.9646,6.935,6.935,6.9349,6.9349,0,6.8373,6.8485,6.8575,6.869,6.8763,6.8883,6.8922,6.8992,6.8996,6.9031,6.9177,6.9247,6.9357,6.94,6.9405,6.9573,6.9549,6.9518,6.9448,6.9589,6.9647,6.9672,6.9357,6.9356,6.9354,6.9353,0,0,6.8583,6.8709,6.8741,6.8792,6.8893,6.8979,6.9097,6.9205,6.9263,6.9346,6.9443,6.9591,6.9561,6.9623,6.9635,6.9712,6.9856,6.967,6.9672,6.9698,7.004,7.006,7.0088,6.9846,6.9851,6.9855,7.0031,0,6.8762,6.8972,6.8995,6.9182,6.9283,6.9271,6.9374,6.9445,6.9481,6.957,6.9609,6.9711,6.9667,6.9703,6.978,6.9822,6.9924,6.9811,6.9933,6.9937,6.9907,7.0119,7.0142,7.0305,7.0055,7.0059,7.0062,0,6.9,6.9089,6.9285,6.9369,6.9412,6.9504,6.9602,6.969,6.9769,6.9789,6.9858,6.9859,6.9978,6.9907,7.0069,6.9991,7.0043,7.0071,7.0078,7.0087,7.0005,7.013,7.0358,7.0381,7.0099,7.0096,7.0093,0,6.9127,6.9297,6.9435,6.9479,6.9582,6.9646,6.9691,6.9767,6.9829,6.9915,6.9954,7.0053,7.0106,7.0182,7.0208,7.0155,7.0368,7.03,7.0384,7.0383,7.0427,7.0423,7.0662,7.0468,7.0467,7.0467,7.0466,0,6.9322,6.9442,6.9493,6.9577,6.971,6.9735,6.9864,6.9906,6.9973,7.0064,7.0061,7.0145,7.0177,7.0267,7.0288,7.0416,7.0442,7.0459,7.0462,7.0457,7.0454,7.0488,7.0475,7.0473,7.0472,7.047,7.0469,0,6.9485,6.9525,6.9674,6.9759,6.9783,6.9876,6.9947,7.0028,7.0062,7.0176,7.0204,7.0257,7.0362,7.0396,7.0524,7.0538,7.0686,7.0682,7.0658,7.0658,7.0739,7.0729,7.1005,7.104,7.0826,7.0828,7.083,0,6.9605,6.9697,6.9791,6.9851,6.9899,6.9998,7.0061,7.0088,7.0153,7.025,7.0318,7.0422,7.0506,7.0673,7.0721,7.0817,7.0813,7.0903,7.0827,7.0817,7.0808,7.08,7.0807,7.0915,7.0918,7.092,7.0921,0,6.9812,6.9827,6.9918,7.0017,7.0092,7.017,7.0246,7.0295,7.0333,7.0407,7.0514,7.0579,7.0708,7.0809,7.0907,7.0951,7.0941,7.0945,7.0969,7.0962,7.0942,7.0949,7.0692,7.0938,7.0936,7.0935,7.0934,7.0933,6.9954,7.0033,7.0111,7.0212,7.0272,7.0342,7.042,7.0464,7.0554,7.0661,7.0672,7.0786,7.0861,7.0991,7.104,7.1128,7.1102,7.1138,7.1146,7.1153,7.1157,7.0932,7.1146,7.1146,7.1145,7.1145,7.1145,0,7.0157,7.0206,7.0299,7.0404,7.0483,7.047,7.0552,7.0617,7.0718,7.0789,7.0872,7.0993,7.1091,7.1147,7.1244,7.1303,7.1301,7.1327,7.1321,7.133,7.1177,7.1144,7.1327,7.1327,7.1327,7.1327,7.1327,7.1327,7.0271,7.0402,7.0426,7.0586,7.0634,7.0746,7.0794,7.0857,7.0913,7.1049,7.113,7.1167,7.1231,7.1332,7.142,7.1434,7.1468,7.1496,7.1506,7.1361,7.1342,7.1324,7.1293,7.1505,7.1505,7.1652,7.1654,7.1655]},{"header":{"parameterUnit":"m.s-1","parameterCategory":1,"la1":30.2991,"la2":30.254,"lo1":-89.0895,"lo2":-89.0444,"dy":0.0017,"dx":0.0017,"nx":28,"ny":28,"refTime":"2025-06-08T09:00:00:Z","depth":0,"parameterNumber":3,"parameterNumberName":"V-component_of_WINDS"},"data":[0,0,0,0,0,0,0,0,0,0,0,0,0,0,0,0,0,0,0,0,0,0,0,0,0,0,0,0,0,0,0,0,0,0,0,0,0,0,0,0,0,0,0,0,0,0,0,0,0,0,0,0,0,0,0,0,0,0,4.7147,4.7149,0,4.7294,4.7296,4.7298,4.7286,4.7284,4.7282,4.728,4.7428,4.7434,4.744,0,0,0,0,0,0,0,0,0,0,0,0,0,4.6853,4.6859,4.7147,4.7149,4.7151,4.7294,4.7296,4.7298,4.7287,4.7284,4.7281,4.7279,4.7426,4.7433,4.744,0,0,0,0,0,0,0,0,0,0,0,0,0,4.6989,4.686,4.7147,4.7163,4.7165,4.7294,4.7296,4.7299,4.7287,4.7284,4.7281,4.7278,4.7424,4.7433,4.7441,4.7563,0,0,4.7469,4.7473,0,0,0,0,0,0,0,0,4.6981,4.6999,4.7158,4.7162,4.7165,4.7269,4.7247,4.7387,4.7288,4.7241,4.728,4.7276,4.7378,4.739,4.7425,4.757,4.7576,4.747,4.7475,4.7479,4.7482,0,0,0,0,0,0,0,4.6972,4.6993,4.7205,4.7161,4.7165,4.7161,4.7177,4.7273,4.7326,4.7245,4.7244,4.7262,4.7379,4.7416,4.7428,4.7578,4.7469,4.7477,4.7483,4.7487,4.7829,4.7832,0,0,0,0,0,0,4.6959,4.6985,4.7201,4.721,4.7063,4.7169,4.7187,4.7239,4.7325,4.7335,4.7265,4.7261,4.7403,4.7418,4.7434,4.7581,4.7479,4.7487,4.7493,4.7825,4.783,4.7834,0,0,0,0,0,0,4.6953,4.6978,4.7195,4.7098,4.7125,4.7178,4.7236,4.7243,4.7281,4.734,4.7349,4.7294,4.7401,4.7421,4.7531,4.7586,4.7491,4.75,4.7821,4.7827,4.7832,4.7877,0,0,0,0,0,0,4.6944,4.6976,4.7024,4.7099,4.713,4.7291,4.724,4.7249,4.7297,4.7293,4.7369,4.7379,4.74,4.7517,4.754,4.7596,4.7507,4.7816,4.7823,4.783,4.7871,4.7883,4.7894,0,0,0,0,0,4.6934,4.7031,4.7026,4.7052,4.7191,4.7294,4.7312,4.7334,4.7301,4.7349,4.7387,4.7376,4.7576,4.7529,4.7554,4.7614,4.7813,4.7821,4.7829,4.7865,4.7881,4.7894,0,0,0,0,0,0,4.696,4.7041,4.7037,4.7161,4.7221,4.7292,4.7353,4.735,4.742,4.7414,4.7438,4.7455,4.7565,4.7601,4.7546,4.7735,4.769,4.7704,4.7709,4.7724,4.7735,4.7724,4.7514,0,0,0,0,0,4.6981,4.7059,4.7124,4.7227,4.7257,4.73,4.7346,4.7358,4.742,4.7446,4.7491,4.7552,4.7628,4.7678,4.7751,4.7875,4.7891,4.7929,4.794,4.795,4.7961,4.8029,4.8046,4.7861,4.7861,4.7861,0,0,4.7024,4.7077,4.7125,4.7234,4.7282,4.7361,4.7321,4.7407,4.7466,4.7458,4.7565,4.76,4.7669,4.7787,4.784,4.7819,4.8016,4.796,4.7967,4.7974,4.8039,4.8056,4.8072,4.7867,4.7866,4.7865,0,0,4.7142,4.7191,4.7281,4.733,4.7403,4.743,4.7452,4.7523,4.7547,4.7654,4.765,4.7719,4.785,4.7899,4.7941,4.8076,4.8069,4.8099,4.816,4.8226,4.824,4.8253,4.8301,4.8318,4.8111,4.8111,4.8111,0,4.7186,4.7306,4.7328,4.7415,4.7462,4.7459,4.755,4.7596,4.7689,4.7721,4.7696,4.786,4.7906,4.8034,4.8067,4.8101,4.8126,4.8091,4.8236,4.825,4.8262,4.8308,4.8326,4.8114,4.8114,4.8113,4.8113,0,4.7356,4.7439,4.7503,4.7593,4.7648,4.7736,4.7771,4.7823,4.783,4.7859,4.7968,4.8023,4.8107,4.8138,4.8145,4.8267,4.8251,4.8231,4.8186,4.8283,4.8326,4.8344,4.8119,4.8117,4.8116,4.8116,0,0,4.7496,4.7597,4.762,4.766,4.774,4.7804,4.7891,4.7974,4.8018,4.8081,4.8155,4.8265,4.8246,4.8294,4.8306,4.8364,4.8466,4.8336,4.8338,4.8358,4.8602,4.8617,4.8637,4.8461,4.8465,4.8468,4.8596,0,4.7622,4.7779,4.78,4.7938,4.8014,4.8011,4.8087,4.8143,4.8173,4.8241,4.8273,4.8351,4.832,4.8349,4.8405,4.8442,4.8515,4.8432,4.8529,4.8532,4.8512,4.866,4.8676,4.8795,4.8613,4.8616,4.8618,0,4.7791,4.786,4.8005,4.8073,4.8106,4.8174,4.825,4.8316,4.8379,4.8396,4.8449,4.8454,4.8543,4.8493,4.8615,4.8558,4.8599,4.8622,4.8627,4.8637,4.8581,4.8674,4.8834,4.8852,4.8645,4.8643,4.8641,0,4.7878,4.8007,4.811,4.8145,4.8227,4.8274,4.8311,4.837,4.8418,4.8485,4.8516,4.8591,4.8633,4.8691,4.8716,4.8677,4.8836,4.8789,4.8852,4.8852,4.8886,4.8884,4.9055,4.8912,4.8912,4.8911,4.8911,0,4.8017,4.8106,4.8151,4.8214,4.8313,4.8336,4.8433,4.8467,4.852,4.8589,4.8591,4.8655,4.8684,4.8753,4.8773,4.887,4.8889,4.8905,4.8909,4.8905,4.8903,4.8932,4.8924,4.8916,4.8915,4.8914,4.8913,0,4.8132,4.8166,4.8278,4.8346,4.8365,4.8435,4.8493,4.8553,4.8582,4.8669,4.8691,4.8735,4.8816,4.8846,4.8944,4.8957,4.907,4.9068,4.9049,4.905,4.9112,4.9106,4.9308,4.9336,4.9174,4.9176,4.9177,0,4.8219,4.8287,4.8362,4.8409,4.8447,4.8523,4.8571,4.8596,4.8646,4.8722,4.8774,4.8854,4.892,4.9049,4.9089,4.9164,4.9163,4.9229,4.9174,4.9168,4.9164,4.9159,4.9166,4.9239,4.9241,4.9242,4.9243,0,4.8369,4.8382,4.8453,4.8529,4.8587,4.8649,4.8708,4.8746,4.8779,4.8835,4.8918,4.8969,4.9069,4.9149,4.9225,4.9261,4.9258,4.926,4.9278,4.9275,4.9262,4.9269,4.9077,4.9255,4.9254,4.9253,4.9252,4.9252,4.8472,4.8533,4.8595,4.8673,4.872,4.8775,4.8836,4.8871,4.8941,4.9025,4.9035,4.9124,4.9183,4.9286,4.9325,4.9393,4.9376,4.9403,4.941,4.9416,4.942,4.925,4.9407,4.9407,4.9407,4.9407,4.9406,0,4.8622,4.8662,4.8734,4.8817,4.8878,4.8869,4.8934,4.8986,4.9064,4.912,4.9185,4.9279,4.9356,4.9402,4.9479,4.9525,4.9525,4.9544,4.9541,4.9549,4.9432,4.9408,4.9543,4.9543,4.9542,4.9542,4.9542,4.9542,4.8707,4.8809,4.8829,4.8952,4.8991,4.9079,4.9116,4.9167,4.9211,4.9317,4.9381,4.9411,4.9462,4.9542,4.9612,4.9623,4.9651,4.9672,4.9682,4.9571,4.9557,4.9544,4.9522,4.9678,4.9678,4.9793,4.9794,4.9795]}]]